Edenton, NC

7:13 PM EDT on June 20, 2018 (GMT -0400)
Northeastern Regional

Weather History for KEDE - August, 2017

Change the Weather History Date:

Sunday, August 13, 2017

  Actual Average Record
Temperature  
Mean Temperature 80 °F -  
Max Temperature 84 °F 85 °F 98 °F (2002)
Min Temperature 76 °F 68 °F 55 °F (1954)
Cooling Degree Days 15    
Growing Degree Days 30 (Base 50)    
Moisture  
Dew Point 75 °F    
Average Humidity 87    
Maximum Humidity 93    
Minimum Humidity 73    
Precipitation  
Precipitation 0.16 in - - ()
Sea Level Pressure  
Sea Level Pressure 29.96 in    
Wind  
Wind Speed 2 mph (ENE)    
Max Wind Speed 8 mph    
Max Gust Speed -    
Visibility 10 miles    
Events Rain    
Averages and records for this station are not official NWS values.
T = Trace of Precipitation, MM = Missing Value Source: NWS Daily Summary

Daily Weather History Graph

Daily Weather History Graph

Search for Another Location

Airport or City:

Astronomy

Aug. 13, 2017 Rise Set
Actual Time 6:23 AM EDT 7:58 PM EDT
Civil Twilight 5:55 AM EDT 8:25 PM EDT
Nautical Twilight 5:23 AM EDT 8:58 PM EDT
Astronomical Twilight 4:48 AM EDT 9:32 PM EDT
Moon 11:42 PM EDT (8/13) 12:09 PM EDT (8/13)
Length of Visible Light 14h 29m
Length of Day
13h 35m
Waning Gibbous, 65% of the Moon is Illuminated
Aug 13
Waning Gibbous
Aug 14
Last Quarter
Aug 21
New
Aug 29
First Quarter
Sep 6
Full

Hourly Weather History & Observations

Time (EDT) Temp. Heat Index Dew Point Humidity Pressure Visibility Wind Dir Wind Speed Gust Speed Precip Events Conditions
12:05 AM 80.1 °F 86.0 °F 77.4 °F 91% 29.90 in 10.0 mi SW 6.9 mph - N/A   Overcast
12:25 AM 80.2 °F 86.5 °F 77.4 °F 91% 29.90 in 10.0 mi SW 5.8 mph - N/A   Overcast
12:45 AM 80.4 °F 86.8 °F 77.4 °F 90% 29.91 in 10.0 mi Calm Calm - N/A   Overcast
1:05 AM 80.6 °F 87.3 °F 77.5 °F 90% 29.91 in 10.0 mi Calm Calm - N/A   Overcast
1:25 AM 80.6 °F 87.3 °F 77.5 °F 90% 29.91 in 10.0 mi WSW 5.8 mph - N/A   Overcast
1:45 AM 80.6 °F 87.1 °F 77.2 °F 89% 29.90 in 10.0 mi West 4.6 mph - N/A   Overcast
2:05 AM 80.1 °F 85.8 °F 77.0 °F 90% 29.90 in 10.0 mi Calm Calm - N/A   Scattered Clouds
2:25 AM 79.9 °F - 77.0 °F 91% 29.90 in 10.0 mi Calm Calm - N/A   Mostly Cloudy
2:45 AM 79.7 °F - 77.0 °F 91% 29.90 in 10.0 mi Calm Calm - N/A   Overcast
3:05 AM 79.7 °F - 76.8 °F 91% 29.90 in 10.0 mi Calm Calm - N/A   Overcast
3:25 AM 79.7 °F - 76.6 °F 90% 29.91 in 10.0 mi Calm Calm - N/A   Overcast
3:45 AM 79.5 °F - 76.5 °F 90% 29.90 in 10.0 mi Calm Calm - N/A   Overcast
4:05 AM 79.0 °F - 76.1 °F 91% 29.90 in 10.0 mi Calm Calm - N/A   Scattered Clouds
4:25 AM 78.8 °F - 75.7 °F 90% 29.90 in 10.0 mi Calm Calm - N/A   Mostly Cloudy
4:45 AM 78.3 °F - 75.7 °F 92% 29.89 in 10.0 mi Calm Calm - N/A   Overcast
5:05 AM 77.9 °F - 75.7 °F 93% 29.90 in 10.0 mi Calm Calm - N/A Rain Light Rain
5:25 AM 78.1 °F - 75.7 °F 92% 29.90 in 10.0 mi Calm Calm - N/A   Overcast
5:45 AM 78.1 °F - 75.9 °F 93% 29.91 in 3.0 mi Calm Calm - 0.15 in Rain Heavy Rain
6:05 AM 77.9 °F - 75.7 °F 93% 29.91 in 10.0 mi Calm Calm - N/A   Overcast
6:25 AM 77.9 °F - 75.6 °F 92% 29.92 in 10.0 mi Calm Calm - 0.01 in   Overcast
6:45 AM 78.1 °F - 75.7 °F 92% 29.93 in 10.0 mi Calm Calm - 0.01 in   Overcast
7:05 AM 77.9 °F - 75.6 °F 92% 29.93 in 10.0 mi Calm Calm - N/A Rain Light Rain
7:25 AM 78.1 °F - 75.7 °F 92% 29.94 in 10.0 mi Calm Calm - N/A   Overcast
7:45 AM 78.3 °F - 75.7 °F 92% 29.95 in 10.0 mi Calm Calm - N/A   Overcast
8:05 AM 78.6 °F - 75.7 °F 91% 29.95 in 10.0 mi Calm Calm - N/A   Mostly Cloudy
8:25 AM 78.8 °F - 75.4 °F 89% 29.96 in 10.0 mi Calm Calm - N/A   Mostly Cloudy
8:40 AM 79.2 °F - 75.7 °F 89% 29.96 in 10.0 mi Calm Calm - N/A   Mostly Cloudy
9:25 AM 79.7 °F - 76.1 °F 89% 29.96 in 10.0 mi Calm Calm - N/A   Overcast
9:45 AM 80.1 °F 85.5 °F 76.3 °F 88% 29.97 in 10.0 mi Calm Calm - N/A   Overcast
10:05 AM 79.7 °F - 75.9 °F 88% 29.98 in 10.0 mi Calm Calm - N/A   Overcast
10:25 AM 79.5 °F - 75.9 °F 89% 29.99 in 10.0 mi Calm Calm - N/A   Overcast
10:45 AM 79.7 °F - 75.0 °F 86% 29.99 in 10.0 mi NNE 5.8 mph - N/A   Overcast
11:05 AM 79.7 °F - 75.4 °F 87% 29.99 in 10.0 mi Calm Calm - N/A   Overcast
11:25 AM 79.9 °F - 75.7 °F 87% 29.99 in 10.0 mi Calm Calm - N/A   Overcast
11:45 AM 80.1 °F 85.2 °F 75.4 °F 86% 29.99 in 10.0 mi NE 5.8 mph - N/A   Overcast
12:05 PM 80.6 °F 86.2 °F 75.4 °F 84% 29.99 in 10.0 mi Calm Calm - N/A   Overcast
12:25 PM 80.8 °F 86.3 °F 74.7 °F 82% 29.99 in 10.0 mi Calm Calm - N/A   Overcast
12:45 PM 81.0 °F 86.9 °F 75.2 °F 83% 29.99 in 10.0 mi Calm Calm - N/A   Overcast
1:05 PM 82.6 °F 89.9 °F 75.6 °F 79% 29.99 in 10.0 mi ENE 8.1 mph - N/A   Overcast
1:25 PM 81.1 °F 87.0 °F 74.8 °F 81% 29.99 in 10.0 mi Calm Calm - N/A   Overcast
1:45 PM 82.0 °F 88.6 °F 74.8 °F 79% 29.98 in 10.0 mi ENE 5.8 mph - N/A   Overcast
2:00 PM 82.8 °F 89.8 °F 75.0 °F 77% 29.98 in 10.0 mi NE 5.8 mph - N/A   Overcast
2:25 PM 82.8 °F 89.5 °F 74.5 °F 76% 29.97 in 10.0 mi NE 8.1 mph - N/A   Mostly Cloudy
2:45 PM 84.4 °F 92.4 °F 74.8 °F 73% 29.98 in 10.0 mi Calm Calm - N/A   Mostly Cloudy
3:05 PM 83.7 °F 91.0 °F 74.5 °F 74% 29.98 in 10.0 mi NE 6.9 mph - N/A   Overcast
3:25 PM 81.7 °F 88.0 °F 74.8 °F 80% 29.97 in 10.0 mi Calm Calm - N/A   Overcast
3:45 PM 81.5 °F 87.4 °F 74.5 °F 79% 29.98 in 10.0 mi Calm Calm - N/A   Overcast
4:05 PM 81.9 °F 88.5 °F 75.0 °F 80% 29.97 in 10.0 mi Calm Calm - N/A   Overcast
4:25 PM 83.1 °F 91.3 °F 76.1 °F 79% 29.96 in 10.0 mi Calm Calm - N/A   Overcast
4:45 PM 82.9 °F 89.9 °F 74.7 °F 76% 29.97 in 10.0 mi ENE 3.5 mph - N/A   Overcast
5:05 PM 82.0 °F 88.6 °F 75.0 °F 79% 29.98 in 10.0 mi East 6.9 mph - N/A   Overcast
5:25 PM 81.1 °F 87.2 °F 75.0 °F 82% 29.99 in 10.0 mi Calm Calm - N/A   Overcast
5:45 PM 81.5 °F 87.6 °F 74.8 °F 80% 29.99 in 10.0 mi East 6.9 mph - N/A   Overcast
6:05 PM 81.0 °F 86.5 °F 74.7 °F 81% 29.99 in 10.0 mi East 6.9 mph - N/A   Overcast
6:25 PM 80.8 °F 86.1 °F 74.5 °F 81% 30.00 in 10.0 mi East 6.9 mph - N/A   Overcast
6:45 PM 80.1 °F 84.8 °F 74.5 °F 83% 29.99 in 10.0 mi Calm Calm - N/A   Overcast
7:05 PM 79.7 °F - 74.3 °F 83% 29.99 in 10.0 mi Calm Calm - N/A   Overcast
7:25 PM 79.2 °F - 73.8 °F 83% 29.99 in 10.0 mi Calm Calm - N/A   Overcast
7:45 PM 78.4 °F - 74.1 °F 87% 29.99 in 10.0 mi Calm Calm - N/A   Mostly Cloudy
8:05 PM 77.7 °F - 74.1 °F 89% 29.99 in 10.0 mi Calm Calm - N/A   Scattered Clouds
8:25 PM 77.2 °F - 73.9 °F 90% 29.99 in 10.0 mi Calm Calm - N/A   Mostly Cloudy
8:45 PM 77.4 °F - 73.8 °F 89% 29.99 in 10.0 mi Calm Calm - N/A   Overcast
9:05 PM 77.0 °F - 73.6 °F 89% 30.01 in 10.0 mi Calm Calm - N/A   Mostly Cloudy
9:25 PM 76.8 °F - 73.6 °F 90% 30.01 in 10.0 mi Calm Calm - N/A   Overcast
9:45 PM 76.3 °F - 73.6 °F 91% 30.02 in 10.0 mi Calm Calm - N/A   Mostly Cloudy
10:05 PM 76.5 °F - 73.6 °F 91% 30.01 in 10.0 mi Calm Calm - N/A   Mostly Cloudy
10:25 PM 76.3 °F - 73.6 °F 91% 30.02 in 10.0 mi Calm Calm - N/A   Scattered Clouds
10:45 PM 76.1 °F - 73.6 °F 92% 30.03 in 10.0 mi Calm Calm - N/A   Clear
11:05 PM 76.1 °F - 73.6 °F 92% 30.02 in 7.0 mi Calm Calm - N/A   Mostly Cloudy
11:25 PM 76.1 °F - 73.6 °F 92% 30.01 in 7.0 mi Calm Calm - N/A   Scattered Clouds
11:45 PM 76.1 °F - 73.8 °F 92% 30.01 in 7.0 mi Calm Calm - N/A   Clear